TimeEST,TemperatureF,Dew PointF,Humidity,Sea Level PressureIn,VisibilityMPH,Wind Direction,Wind SpeedMPH,Gust SpeedMPH,PrecipitationIn,Events,Conditions,WindDirDegrees,DateUTC
12:54 AM,44.1,42.1,93,30.06,8.0,ENE,10.4,-,N/A,,Overcast,60,2012-12-09 05:54:00
1:54 AM,43.0,41.0,93,30.07,7.0,NE,9.2,-,N/A,,Overcast,50,2012-12-09 06:54:00
2:54 AM,43.0,41.0,93,30.07,6.0,ENE,10.4,-,N/A,,Overcast,60,2012-12-09 07:54:00
3:54 AM,43.0,41.0,93,30.06,8.0,ENE,10.4,-,N/A,,Overcast,60,2012-12-09 08:54:00
4:54 AM,43.0,41.0,93,30.06,8.0,ENE,6.9,-,N/A,,Overcast,70,2012-12-09 09:54:00
5:06 AM,42.8,41.0,93,30.02,8.0,East,8.1,-,N/A,,Overcast,80,2012-12-09 10:06:00
5:54 AM,43.0,39.9,89,30.06,7.0,East,10.4,16.1,N/A,,Overcast,80,2012-12-09 10:54:00
6:12 AM,42.8,39.2,87,30.02,7.0,East,9.2,-,N/A,,Overcast,80,2012-12-09 11:12:00
6:36 AM,42.8,39.2,87,30.01,7.0,ENE,11.5,-,N/A,,Overcast,70,2012-12-09 11:36:00
6:54 AM,42.1,39.9,92,30.05,7.0,East,10.4,18.4,N/A,,Overcast,80,2012-12-09 11:54:00
7:15 AM,42.8,39.2,87,30.01,7.0,East,8.1,19.6,N/A,,Overcast,80,2012-12-09 12:15:00
7:54 AM,42.1,39.9,92,30.06,6.0,Variable,4.6,17.3,N/A,,Overcast,0,2012-12-09 12:54:00
8:54 AM,42.1,39.9,92,30.04,4.0,East,9.2,-,N/A,,Overcast,90,2012-12-09 13:54:00
9:54 AM,43.0,42.1,97,30.02,4.0,East,12.7,19.6,N/A,,Overcast,100,2012-12-09 14:54:00
10:11 AM,42.8,42.8,100,29.97,4.0,ESE,10.4,-,N/A,,Overcast,110,2012-12-09 15:11:00
10:40 AM,44.6,42.8,93,29.96,2.5,ESE,10.4,17.3,0.00,Rain,Light Rain,110,2012-12-09 15:40:00
10:54 AM,44.1,43.0,96,29.99,2.0,ESE,11.5,-,0.00,,Overcast,110,2012-12-09 15:54:00
11:01 AM,44.6,44.6,100,29.95,1.5,ESE,12.7,-,N/A,,Overcast,120,2012-12-09 16:01:00
11:18 AM,44.6,44.6,100,29.95,2.0,ESE,10.4,-,N/A,,Overcast,120,2012-12-09 16:18:00
11:54 AM,45.0,45.0,100,29.96,2.0,ESE,12.7,-,N/A,,Overcast,120,2012-12-09 16:54:00
12:18 PM,46.4,46.4,100,29.91,3.0,SE,11.5,-,N/A,,Overcast,140,2012-12-09 17:18:00
12:54 PM,48.9,48.0,97,29.91,5.0,SSE,10.4,-,0.00,Rain,Light Rain,150,2012-12-09 17:54:00
1:54 PM,53.1,51.1,93,29.88,10.0,South,10.4,-,0.00,,Overcast,170,2012-12-09 18:54:00
2:54 PM,55.0,53.1,93,29.86,10.0,South,10.4,-,N/A,,Overcast,170,2012-12-09 19:54:00
3:54 PM,55.9,54.0,93,29.85,10.0,South,11.5,-,N/A,,Overcast,170,2012-12-09 20:54:00
4:04 PM,55.4,53.6,94,29.82,10.0,South,10.4,-,N/A,,Overcast,170,2012-12-09 21:04:00
4:35 PM,55.4,55.4,100,29.82,10.0,South,9.2,-,N/A,,Overcast,180,2012-12-09 21:35:00
4:54 PM,57.0,55.0,93,29.84,10.0,South,10.4,-,N/A,,Overcast,180,2012-12-09 21:54:00
5:29 PM,57.2,55.4,94,29.81,10.0,South,11.5,19.6,N/A,,Overcast,180,2012-12-09 22:29:00
5:54 PM,57.0,55.9,96,29.83,10.0,South,10.4,-,0.00,,Overcast,190,2012-12-09 22:54:00
6:13 PM,57.2,55.4,94,29.80,10.0,South,10.4,-,0.00,Rain,Light Rain,190,2012-12-09 23:13:00
6:23 PM,57.2,55.4,94,29.79,10.0,South,9.2,-,0.01,Rain,Light Rain,190,2012-12-09 23:23:00
6:36 PM,57.2,55.4,94,29.79,10.0,South,11.5,-,0.01,Rain,Light Rain,180,2012-12-09 23:36:00
6:54 PM,57.0,55.9,96,29.81,10.0,South,12.7,-,0.01,,Overcast,190,2012-12-09 23:54:00
7:54 PM,57.9,55.9,93,29.80,10.0,South,13.8,-,N/A,,Overcast,190,2012-12-10 00:54:00
8:20 PM,57.2,55.4,94,29.76,10.0,South,11.5,-,N/A,,Overcast,190,2012-12-10 01:20:00
8:41 PM,57.2,55.4,94,29.75,10.0,South,11.5,-,N/A,,Overcast,190,2012-12-10 01:41:00
8:49 PM,57.2,55.4,94,29.74,10.0,SSW,12.7,-,N/A,,Overcast,200,2012-12-10 01:49:00
8:54 PM,57.9,55.9,93,29.76,10.0,South,10.4,-,N/A,,Overcast,190,2012-12-10 01:54:00
9:52 PM,57.2,55.4,94,29.71,6.0,SW,16.1,-,0.08,Rain,Light Rain,230,2012-12-10 02:52:00
9:54 PM,57.0,55.0,93,29.75,8.0,WSW,15.0,24.2,0.08,Rain,Light Rain,240,2012-12-10 02:54:00
10:01 PM,55.4,53.6,94,29.74,7.0,West,18.4,-,0.01,Rain,Rain,260,2012-12-10 03:01:00
10:54 PM,53.1,52.0,96,29.75,10.0,SSW,8.1,-,0.09,Rain,Light Rain,200,2012-12-10 03:54:00
11:54 PM,53.1,53.1,100,29.75,10.0,SSW,12.7,-,0.08,Rain,Light Rain,210,2012-12-10 04:54:00